Regional Weather Roundup
Issued by NWS

Home | Current Version | Previous Version | Text Only | Print | Product List | Glossary On
Versions: 1 2 3 4 5 6 7 8 9 10 11 12 13 14 15 16 17 18 19 20 21 22 23 24 25 26 27 28 29 30 31 32 33 34 35 36 37 38 39 40 41 42 43 44 45 46 47 48 49 50
396
ASUS44 KFWD 182203
RWRTX
NORTH TEXAS HOURLY WEATHER ROUNDUP
NATIONAL WEATHER SERVICE FORT WORTH TX
400 PM CST SAT NOV 18 2017

NOTE: "FAIR" INDICATES FEW OR NO CLOUDS BELOW 12,000 FEET WITH NO
SIGNIFICANT WEATHER AND/OR OBSTRUCTIONS TO VISIBILITY.

TXZ118-119-182300-
DALLAS/FORT WORTH METROPLEX

CITY           SKY/WX    TMP DP  RH WIND       PRES   REMARKS
DFW AIRPORT    PTSUNNY   63  38  39 N25G36    30.08R
DALLAS LOVE    PTSUNNY   63  38  39 N24G36    30.09R
FTW MEACHAM    PTSUNNY   63  40  42 N22G38    30.10R
FTW-ALLIANCE   PTSUNNY   61  37  41 N18G35    30.11R
FTW-NAS-JRB    PTSUNNY   63  38  39 N24G33    30.12R
FTW-SPINKS     MOSUNNY   63  39  42 N25G38    30.12R
ARLINGTON      PTSUNNY   62  39  42 NW30G38   30.09R
GRAND PRAIRIE  SUNNY     63  37  39 NW16G24   30.11R
ADDISON        MOSUNNY   61  37  41 N29G40    30.11R
MESQUITE       MOSUNNY   63  39  42 N20G30    30.08R
LANCASTER      MOSUNNY   63  40  42 NW23G33   30.09R
$$

TXZ091>094-102>105-117-120-121-131>134-182300-
NORTH CENTRAL TEXAS

CITY           SKY/WX    TMP DP  RH WIND       PRES   REMARKS
SHRMAN/DENISON CLOUDY    57  37  46 N21G29    30.13R
GAINESVILLE    MOSUNNY   57  35  42 NW21G29   30.15R
BOWIE          MOSUNNY   57  33  40 N24G35    30.15R
DECATUR        CLOUDY    58  34  40 N17G31    30.13R
DENTON         CLOUDY    59  38  45 N21G36    30.12R
MCKINNEY       PTSUNNY   59  40  49 N23G36    30.09R
BONHAM         PTSUNNY  N/A N/A N/A N15G29    30.10R
ROCKWALL       MOSUNNY   61  41  46 N21G30    30.08R
TERRELL        SUNNY     63  39  41 N20G35    30.07R
WAXAHACHIE     MOSUNNY   63  42  46 NW23G30   30.09R
CLEBURNE       MOSUNNY   64  39  39 N23G32    30.11R
GRANBURY       MOSUNNY   64  38  38 N16G30    30.13R
$$

TXZ083>090-098>101-113>116-127>130-139>142-154-155-182300-
WESTERN NORTH TEXAS

CITY           SKY/WX    TMP DP  RH WIND       PRES   REMARKS
WICHITA FALLS  SUNNY     59  31  34 N25G37    30.18R
WF-KICKAPOO    SUNNY     60  32  34 N30       30.21R
VERNON         SUNNY     61  22  22 N18G30    30.20S
ABILENE        CLOUDY    59  31  34 N26G37    30.17R
ABILENE-DYESS  CLOUDY    60  35  39 N24G31      N/A
GRAHAM           N/A     60  32  35 N22G32    30.15R
CISCO          PTSUNNY   59  34  38 N18G32    30.16R
EASTLAND       PTSUNNY   60  34  37 N15G26    30.16R
RANGER         PTSUNNY   60  34  38 N21G28    30.15R
MINERAL WELLS  PTSUNNY   62  34  35 N21G33    30.12R
STEPHENVILLE   MOSUNNY   62  34  35 N17G28    30.14R
COMANCHE       SUNNY     64  35  34 N20G38    30.14R
BROWNWOOD      SUNNY     64  32  29 N18G35    30.14R
COLEMAN        SUNNY     64  31  29 N26       30.16R
$$

TXZ143>147-156>162-174-175-182300-
CENTRAL TEXAS

CITY           SKY/WX    TMP DP  RH WIND       PRES   REMARKS
WACO           CLOUDY    68  41  37 N17G30    30.05R
WACO-TSTC      SUNNY     68  39  34 N18G29    30.05R
WACO-MCGREGOR  MOSUNNY   68  41  37 N18G29    30.06R
HILLSBORO      MOSUNNY   66  42  42 NW24G32   30.07R
CORSICANA      CLOUDY    66  43  43 N23G31    30.05
MEXIA          MOSUNNY   67  40  37 N23G36    30.03R
HEARNE         SUNNY     71  43  35 N18G26    30.01R
CAMERON        SUNNY     72  40  31 N21G30    30.02R
TEMPLE         SUNNY     70  38  31 N18G33    30.04R
KILLEEN        SUNNY     69  35  27 NW26      30.05R
KILLEEN-SKYLRK SUNNY     70  37  29 N20G31    30.05R
FORT HOOD      SUNNY     70  37  29 N24       30.02R
GATESVILLE     PTSUNNY   68  37  32 N14G25    30.09R
HAMILTON       MOSUNNY   65  39  38 N26G33    30.11R
LAMPASAS       SUNNY     71  38  30 N15G28    30.07R
$$

TXZ095>097-106>112-122>126-135>138-148>153-164>167-182300-
EAST TEXAS

CITY           SKY/WX    TMP DP  RH WIND       PRES   REMARKS
PARIS          PTSUNNY   55  41  59 N25G32    30.08R
SULPHUR SPRNGS MOSUNNY   60  42  52 N22G31    30.08R
MOUNT PLEASANT CLOUDY    60  43  52 NW18G35   30.05R
GILMER         CLOUDY    63  42  46 NW13G28   30.00R
MINEOLA        CLOUDY    63  43  48 N22G31    30.05R
TYLER          CLOUDY    66  41  40 N20G25    30.00R
LONGVIEW       MOSUNNY   66  45  45 NW22G31   29.96R
MARSHALL       PTSUNNY   65  42  43 N18G28    29.98R
ATHENS         CLOUDY    63  39  42 N12G26    30.01R
PALESTINE      SUNNY     69  42  37 NW17G26   30.00R
JACKSONVILLE   SUNNY     68  44  41 NW15G25   30.00R
HENDERSON      MOSUNNY   68  44  41 N16G28    29.98R
CENTER         CLEAR     70  43  38 NW21G35   29.94R
NACOGDOCHES    SUNNY     72  48  42 NW18G26   29.95R
LUFKIN         SUNNY     74  47  38 N15G31    29.92R
$$

SUPPLEMENTAL OBSERVATIONS (NWS FORT WORTH AREA)

CITY           SKY/WX    TMP DP  RH WIND       PRES   REMARKS
$$

SUPPLEMENTAL OBSERVATIONS (NWS NORMAN AREA)

CITY           SKY/WX    TMP DP  RH WIND       PRES   REMARKS
GOODLETT         N/A     60  22  22 N21G30    30.21R
ODELL            N/A     60  30  32 N17       30.21S
CROWELL          N/A     61  27  27 N22       30.22R
KNOX CITY        N/A     63  25  23 N21G30    30.21R
SEYMOUR          N/A     60  28  29 N25G31    30.21R
$$

SUPPLEMENTAL OBSERVATIONS (NWS SAN ANGELO AREA)

CITY           SKY/WX    TMP DP  RH WIND       PRES   REMARKS
WEINERT          N/A     61  28  28 N18       30.21R
HASKELL          N/A     61  26  27 N21G29    30.20R
THROCKMORTON     N/A     60  32  34 N17       30.19R
STAMFORD         N/A     61  30  31 N20       30.20S
CLYDE            N/A     58  33  37 N25G32    30.19R
$$

SUPPLEMENTAL OBSERVATIONS (NWS SHREVEPORT AREA)

CITY           SKY/WX    TMP DP  RH WIND       PRES   REMARKS
$$

SUPPLEMENTAL OBSERVATIONS ARE A COLLECTION OF AUTOMATED INSTRUMENTS
THAT ARE MAINTAINED BY A VARIETY OF FEDERAL AND STATE AGENCIES.
CERTAIN ELEMENTS...SUCH AS HUMIDITY VALUES AND SUSTAINED WIND
SPEEDS...MAY BE APPROXIMATED.





USA.gov is the U.S. government's official web portal to all federal, state and local government web resources and services.